User: anonymous   Login
Location: Ffald-y-Brenin
(52.0833°N, 4.0000°W)
Time: 17:41:54
(UTC+00:00)
Language:

Cosmos 2369 Rocket - Orbit

View from above orbital plane
View from above orbital plane
View from above satellite
View from above satellite

Ground track
Ground track

The orbit data is extracted from the following two-line orbital elements,

1 26070U 00006B   20151.57036582 +.00000079 +00000-0 +65014-4 0  9992
2 26070 071.0019 210.8323 0015764 158.6176 201.5609 14.15460995050104
Epoch (UTC): 30 May 2020 13:41:19
Eccentricity: 0.0015764
inclination: 71.0019°
perigee height: 829 km
apogee height: 852 km
right ascension of ascending node: 210.8323°
argument of perigee: 158.6176°
revolutions per day: 14.15460995
mean anomaly at epoch: 201.5609°
orbit number at epoch: 5010

The dashed part of the orbit path shows where the satellite is in the earth's shadow,  

DLR